Weather History for Bentonville, AR

Change the Weather History Date:

Sunday, January 29, 2012

  Actual Average Record
Temperature  
Mean Temperature 42 °F -  
Max Temperature 55 °F 47 °F 73 °F (2011)
Min Temperature 30 °F 24 °F -4 °F (1966)
Degree Days  
Heating Degree Days 22    
Moisture  
Dew Point 22 °F    
Average Humidity 47    
Maximum Humidity 64    
Minimum Humidity 29    
Precipitation  
Precipitation 0.00 in - - ()
Sea Level Pressure  
Sea Level Pressure 30.29 in    
Wind  
Wind Speed 8 mph (SW)    
Max Wind Speed 17 mph    
Max Gust Speed 22 mph    
Visibility 10 miles    
Events      
Averages and records for this station are not official NWS values.
T = Trace of Precipitation, MM = Missing Value Source: NWS Daily Summary

Daily Weather History Graph

Daily Weather History Graph

Search for Another Location

Airport:

Trip Planner

Search our weather history database for the weather conditions in past years. The results will help you decide how hot, cold, wet, or windy it might be!

Date:

Astronomy

Jan. 29, 2012 Rise Set
Actual Time 7:20 AM CST 5:39 PM CST
Civil Twilight 6:53 AM CST 6:06 PM CST
Nautical Twilight 6:22 AM CST 6:37 PM CST
Astronomical Twilight 5:52 AM CST 7:08 PM CST
Moon 10:25 AM CST (1/29) No Moon Set
Length of Visible Light 11h 13m
Length of Day
10h 18m
Waxing Crescent, 37% of the Moon is Illuminated
Jan 29
Waxing Crescent
Jan 30
First Quarter
Feb 7
Full
Feb 14
Last Quarter
Feb 21
New

Hourly Weather History & Observations

Time (CST) Temp. Windchill Dew Point Humidity Pressure Visibility Wind Dir Wind Speed Gust Speed Precip Events Conditions
12:15 AM 30.2 °F 23.4 °F 19.4 °F 64% 30.34 in 10.0 mi SW 6.9 mph - N/A   Clear
12:35 AM 30.2 °F 24.3 °F 19.4 °F 64% 30.34 in 10.0 mi SW 5.8 mph - N/A   Clear
12:55 AM 30.2 °F 24.3 °F 17.6 °F 60% 30.33 in 10.0 mi SSW 5.8 mph - N/A   Clear
1:15 AM 30.2 °F 25.4 °F 17.6 °F 60% 30.33 in 10.0 mi SSW 4.6 mph - N/A   Clear
1:35 AM 30.2 °F 24.3 °F 19.4 °F 64% 30.32 in 10.0 mi SW 5.8 mph - N/A   Clear
1:55 AM 30.2 °F 23.4 °F 19.4 °F 64% 30.33 in 10.0 mi SW 6.9 mph - N/A   Clear
2:15 AM 30.2 °F 24.3 °F 17.6 °F 60% 30.33 in 10.0 mi SW 5.8 mph - N/A   Clear
2:35 AM 30.2 °F 25.4 °F 19.4 °F 64% 30.33 in 10.0 mi WSW 4.6 mph - N/A   Clear
2:55 AM 30.2 °F 25.4 °F 17.6 °F 60% 30.33 in 10.0 mi SW 4.6 mph - N/A   Clear
3:15 AM 30.2 °F 25.4 °F 17.6 °F 60% 30.33 in 10.0 mi SW 4.6 mph - N/A   Clear
3:35 AM 30.2 °F 23.4 °F 17.6 °F 60% 30.33 in 10.0 mi SW 6.9 mph - N/A   Clear
4:35 AM 30.2 °F 23.4 °F 17.6 °F 60% 30.33 in 10.0 mi SW 6.9 mph - N/A   Clear
4:55 AM 30.2 °F 24.3 °F 17.6 °F 60% 30.32 in 10.0 mi SW 5.8 mph - N/A   Clear
5:15 AM 30.2 °F 24.3 °F 17.6 °F 60% 30.33 in 10.0 mi SW 5.8 mph - N/A   Clear
5:55 AM 30.2 °F 24.3 °F 19.4 °F 64% 30.32 in 10.0 mi SW 5.8 mph - N/A   Clear
6:15 AM 30.2 °F 23.4 °F 19.4 °F 64% 30.32 in 10.0 mi SW 6.9 mph - N/A   Clear
6:35 AM 30.2 °F 23.4 °F 19.4 °F 64% 30.32 in 10.0 mi SW 6.9 mph - N/A   Clear
6:55 AM 30.2 °F 24.3 °F 19.4 °F 64% 30.32 in 10.0 mi SSW 5.8 mph - N/A   Clear
7:15 AM 30.2 °F 23.4 °F 19.4 °F 64% 30.33 in 10.0 mi SW 6.9 mph - N/A   Clear
7:35 AM 30.2 °F 23.4 °F 19.4 °F 64% 30.33 in 10.0 mi SW 6.9 mph - N/A   Clear
7:55 AM 32.0 °F 25.6 °F 19.4 °F 60% 30.33 in 10.0 mi SW 6.9 mph - N/A   Clear
8:15 AM 33.8 °F 27.7 °F 21.2 °F 60% 30.33 in 10.0 mi SW 6.9 mph - N/A   Clear
8:35 AM 35.6 °F 28.0 °F 21.2 °F 56% 30.33 in 10.0 mi SW 10.4 mph - N/A   Clear
8:55 AM 37.4 °F 29.8 °F 21.2 °F 52% 30.33 in 10.0 mi SW 11.5 mph - N/A   Clear
9:15 AM 39.2 °F 31.2 °F 23.0 °F 52% 30.33 in 10.0 mi SW 13.8 mph - N/A   Clear
9:35 AM 41.0 °F 33.9 °F 23.0 °F 49% 30.33 in 10.0 mi SW 12.7 mph 18.4 mph N/A   Clear
9:55 AM 42.8 °F 36.2 °F 24.8 °F 49% 30.33 in 10.0 mi SW 12.7 mph - N/A   Clear
10:15 AM 42.8 °F 35.1 °F 24.8 °F 49% 30.32 in 10.0 mi WSW 16.1 mph 20.7 mph N/A   Clear
10:35 AM 44.6 °F 37.2 °F 24.8 °F 46% 30.33 in 10.0 mi WSW 17.3 mph 21.9 mph N/A   Clear
10:55 AM 46.4 °F 40.4 °F 24.8 °F 43% 30.33 in 10.0 mi SW 13.8 mph - N/A   Clear
11:15 AM 48.2 °F - 26.6 °F 43% 30.32 in 10.0 mi SW 16.1 mph 20.7 mph N/A   Clear
11:35 AM 48.2 °F - 26.6 °F 43% 30.32 in 10.0 mi WSW 15.0 mph 20.7 mph N/A   Clear
11:55 AM 48.2 °F - 24.8 °F 40% 30.32 in 10.0 mi WSW 17.3 mph - N/A   Clear
12:15 PM 50.0 °F - 24.8 °F 37% 30.31 in 10.0 mi SW 15.0 mph 18.4 mph N/A   Clear
12:35 PM 51.8 °F - 24.8 °F 35% 30.29 in 10.0 mi SW 12.7 mph 17.3 mph N/A   Clear
12:55 PM 51.8 °F - 26.6 °F 38% 30.28 in 10.0 mi WSW 15.0 mph 19.6 mph N/A   Clear
1:15 PM 53.6 °F - 26.6 °F 35% 30.27 in 10.0 mi WSW 10.4 mph 20.7 mph N/A   Clear
1:35 PM 53.6 °F - 24.8 °F 33% 30.26 in 10.0 mi SW 15.0 mph - N/A   Clear
1:55 PM 55.4 °F - 24.8 °F 31% 30.25 in 10.0 mi SW 15.0 mph - N/A   Clear
2:15 PM 55.4 °F - 24.8 °F 31% 30.24 in 10.0 mi SW 13.8 mph 20.7 mph N/A   Clear
2:35 PM 55.4 °F - 24.8 °F 31% 30.24 in 10.0 mi WSW 13.8 mph 20.7 mph N/A   Clear
2:55 PM 55.4 °F - 26.6 °F 33% 30.24 in 10.0 mi SW 12.7 mph - N/A   Clear
3:15 PM 55.4 °F - 24.8 °F 31% 30.23 in 10.0 mi WSW 11.5 mph - N/A   Clear
3:35 PM 55.4 °F - 24.8 °F 31% 30.23 in 10.0 mi SW 12.7 mph - N/A   Clear
3:55 PM 55.4 °F - 23.0 °F 29% 30.23 in 10.0 mi SW 11.5 mph - N/A   Clear
4:15 PM 53.6 °F - 23.0 °F 30% 30.23 in 10.0 mi WSW 15.0 mph 20.7 mph N/A   Clear
4:35 PM 53.6 °F - 23.0 °F 30% 30.23 in 10.0 mi WSW 9.2 mph - N/A   Clear
4:55 PM 51.8 °F - 24.8 °F 35% 30.22 in 10.0 mi SW 11.5 mph - N/A   Clear
5:15 PM 51.8 °F - 23.0 °F 33% 30.22 in 10.0 mi SSW 6.9 mph - N/A   Clear
5:35 PM 48.2 °F - 23.0 °F 37% 30.22 in 10.0 mi SSW 8.1 mph - N/A   Clear
5:55 PM 48.2 °F - 21.2 °F 34% 30.23 in 10.0 mi SSW 6.9 mph - N/A   Clear
6:15 PM 46.4 °F 42.4 °F 21.2 °F 37% 30.23 in 10.0 mi SW 8.1 mph - N/A   Clear
6:35 PM 46.4 °F 42.9 °F 21.2 °F 37% 30.23 in 10.0 mi WSW 6.9 mph - N/A   Clear
6:55 PM 46.4 °F 43.5 °F 21.2 °F 37% 30.23 in 10.0 mi SW 5.8 mph - N/A   Clear
7:15 PM 46.4 °F 42.9 °F 21.2 °F 37% 30.23 in 10.0 mi SSW 6.9 mph - N/A   Clear
7:35 PM 44.6 °F 41.4 °F 21.2 °F 39% 30.23 in 10.0 mi SSW 5.8 mph - N/A   Clear
7:55 PM 44.6 °F 42.2 °F 21.2 °F 39% 30.24 in 10.0 mi South 4.6 mph - N/A   Clear
8:15 PM 44.6 °F 41.4 °F 21.2 °F 39% 30.23 in 10.0 mi South 5.8 mph - N/A   Clear
8:35 PM 42.8 °F 40.1 °F 21.2 °F 42% 30.23 in 10.0 mi South 4.6 mph - N/A   Clear
8:55 PM 42.8 °F 40.1 °F 21.2 °F 42% 30.23 in 10.0 mi South 4.6 mph - N/A   Clear
9:15 PM 42.8 °F 39.3 °F 21.2 °F 42% 30.22 in 10.0 mi South 5.8 mph - N/A   Clear
9:35 PM 42.8 °F 40.1 °F 21.2 °F 42% 30.22 in 10.0 mi South 4.6 mph - N/A   Clear
9:55 PM 41.0 °F 38.0 °F 21.2 °F 45% 30.22 in 10.0 mi South 4.6 mph - N/A   Clear
10:15 PM 41.0 °F 38.0 °F 21.2 °F 45% 30.22 in 10.0 mi SSW 4.6 mph - N/A   Clear
10:35 PM 41.0 °F 38.0 °F 23.0 °F 49% 30.22 in 10.0 mi SSW 4.6 mph - N/A   Clear
10:55 PM 42.8 °F 39.3 °F 23.0 °F 46% 30.22 in 10.0 mi SSW 5.8 mph - N/A   Clear
11:35 PM 42.8 °F 39.3 °F 24.8 °F 49% 30.22 in 10.0 mi SSW 5.8 mph - N/A   Clear
11:55 PM 42.8 °F 38.6 °F 23.0 °F 46% 30.21 in 10.0 mi SSW 6.9 mph - N/A   Clear